Location: Bridgewater
(44.3670°N, 64.5170°W)
Time: 06:22:44
(UTC-03:00)

Amateur Radio Satellites - All Passes

Search period start: 18 April 2014 05:52
Search period end: 19 April 2014 05:52
Location: Bridgewater, 44.3670°N, 64.5170°W

Satellite Date Start Highest point End Downlink Frequencies (MHz)
Time Altitude Azimuth
AO-7 18 Apr 05:56:31 06:04:50 70° 105° (ESE) 06:13:08 29.400 - 29.500 MHz
TMSAT-1 18 Apr 06:18:27 06:21:56 18° 300° (WNW) 06:25:24 436.925 FM
Uosat F 18 Apr 06:37:12 06:41:21 27° 296° (WNW) 06:45:29 435.120 FM
KITSAT 1 18 Apr 06:47:47 06:53:57 23° 333° (NNW) 07:00:08 435.175 FM
JAS-2 18 Apr 06:55:53 06:55:54 10° 88° (E) 06:55:54 435.800 - 435.900 CW/SSB, 435.910 FM
JAS-1B 18 Apr 07:05:49 07:09:44 19° 302° (WNW) 07:13:37 435.800 - 435.900 CW/SSB
Hamsat 18 Apr 07:11:41 07:15:49 41° 98° (E) 07:19:56 145.90 MHz
STRAND 1 18 Apr 07:25:44 07:30:48 61° 258° (WSW) 07:35:53 ?
MaSat-1 18 Apr 07:28:25 07:31:08 40° 60° (ENE) 07:34:17 437.345 MHz
RS-15 18 Apr 07:46:14 07:57:23 67° 117° (ESE) 08:08:11 29.354 - 29.394 USB, Beacon 29.352 USB
AO-7 18 Apr 07:50:05 07:57:01 31° 306° (NW) 08:03:58 29.400 - 29.500 MHz
SO-67 18 Apr 08:04:57 08:08:01 28° 96° (E) 08:11:03 435.3500 MHz FM
PCSat 18 Apr 08:31:22 08:34:16 14° 33° (NNE) 08:37:10 145.825 MHz
JAS-2 18 Apr 08:36:24 08:41:44 81° 104° (ESE) 08:47:33 435.800 - 435.900 CW/SSB, 435.910 FM
Hamsat 18 Apr 08:48:19 08:51:32 21° 295° (WNW) 08:54:45 145.90 MHz
KITSAT 1 18 Apr 08:48:31 08:52:59 15° 3° (N) 08:57:26 435.175 FM
MaSat-1 18 Apr 09:09:03 09:09:23 10° 251° (WSW) 09:09:43 437.345 MHz
Sapphire 18 Apr 09:28:43 09:33:24 29° 45° (NE) 09:38:03 437.095 MHz 1200 baud AX-25 AFSK
SO-67 18 Apr 09:38:29 09:41:01 19° 292° (WNW) 09:43:32 435.3500 MHz FM
RS-15 18 Apr 09:59:49 10:10:22 45° 322° (NW) 10:20:45 29.354 - 29.394 USB, Beacon 29.352 USB
HO-68 18 Apr 10:05:01 10:11:50 44° 99° (E) 10:18:37 435.675 MHz FM
PCSat 18 Apr 10:13:28 10:18:51 60° 55° (NE) 10:24:12 145.825 MHz
Oscar 11 18 Apr 10:18:45 10:22:07 22° 93° (E) 10:25:29 145.825 FM, Beacon 2401.500 USB
JAS-2 18 Apr 10:23:19 10:26:18 15° 301° (WNW) 10:29:23 435.800 - 435.900 CW/SSB, 435.910 FM
KITSAT 1 18 Apr 10:45:03 10:51:45 27° 33° (NNE) 10:58:23 435.175 FM
Sapphire 18 Apr 11:11:51 11:17:07 52° 245° (WSW) 11:22:20 437.095 MHz 1200 baud AX-25 AFSK
FUNcube-1 18 Apr 11:40:05 11:44:14 50° 100° (E) 11:48:25 145.950 - 145.970 MHz USB
Saudisat 1A 18 Apr 11:44:06 11:48:14 38° 117° (ESE) 11:52:23 436.775 MHz
HO-68 18 Apr 11:52:54 11:59:28 40° 298° (WNW) 12:06:01 435.675 MHz FM
Oscar 11 18 Apr 11:54:24 11:58:26 37° 290° (WNW) 12:02:27 145.825 FM, Beacon 2401.500 USB
PCSat 18 Apr 11:57:48 12:01:49 21° 253° (WSW) 12:05:49 145.825 MHz
RS-15 18 Apr 12:17:45 12:26:28 26° 355° (N) 12:35:09 29.354 - 29.394 USB, Beacon 29.352 USB
Oscar 19 18 Apr 12:28:46 12:31:16 14° 57° (ENE) 12:33:47 437.125 CW, 437.150 USB
Oscar 16 18 Apr 12:35:57 12:39:10 17° 59° (ENE) 12:42:24 437.025 USB, Beacon 2401.1428
KITSAT 1 18 Apr 12:40:15 12:48:25 83° 57° (ENE) 12:56:30 435.175 FM
Uribyol 2 18 Apr 13:08:35 13:12:00 18° 60° (ENE) 13:15:25 436.500 FM
FUNcube-1 18 Apr 13:17:37 13:20:18 17° 296° (WNW) 13:23:00 145.950 - 145.970 MHz USB
Saudisat 1A 18 Apr 13:23:58 13:27:55 30° 316° (NW) 13:31:52 436.775 MHz
Gurwin Techsat 1B 18 Apr 13:36:40 13:37:07 10° 54° (NE) 13:37:34 435.225 FM
AO-27 18 Apr 13:46:31 13:51:13 36° 67° (ENE) 13:55:56 436.795 MHz FM
ITAMSAT 1 18 Apr 13:57:20 14:02:13 44° 69° (ENE) 14:07:07 435.822 SSB
Oscar 19 18 Apr 14:04:43 14:09:52 90° 258° (WSW) 14:15:04 437.125 CW, 437.150 USB
Oscar 16 18 Apr 14:12:49 14:17:56 72° 257° (WSW) 14:23:07 437.025 USB, Beacon 2401.1428
JAS-1B 18 Apr 14:13:51 14:17:27 14° 54° (NE) 14:20:49 435.800 - 435.900 CW/SSB
AO-Echo 18 Apr 14:16:46 14:21:51 52° 71° (ENE) 14:26:50 ?
TMSAT-1 18 Apr 14:22:06 14:25:41 19° 60° (ENE) 14:29:17 436.925 FM
RS-15 18 Apr 14:33:10 14:43:04 37° 30° (NNE) 14:53:02 29.354 - 29.394 USB, Beacon 29.352 USB
KITSAT 1 18 Apr 14:36:56 14:42:53 23° 257° (WSW) 14:48:48 435.175 FM
Uribyol 2 18 Apr 14:45:49 14:50:57 67° 258° (WSW) 14:56:07 436.500 FM
AO-7 18 Apr 15:06:55 15:13:26 27° 52° (NE) 15:19:57 29.400 - 29.500 MHz
Gurwin Techsat 1B 18 Apr 15:10:50 15:16:04 65° 72° (ENE) 15:21:20 435.225 FM
OPAL 18 Apr 15:20:10 15:24:30 26° 96° (E) 15:28:48 ?
AO-27 18 Apr 15:26:12 15:30:46 31° 264° (W) 15:35:21 436.795 MHz FM
ITAMSAT 1 18 Apr 15:37:40 15:41:54 25° 266° (W) 15:46:09 435.822 SSB
SO-50 18 Apr 15:46:42 15:50:15 24° 113° (ESE) 15:53:50 436.795 FM
Oscar 19 18 Apr 15:48:18 15:49:56 11° 273° (W) 15:51:34 437.125 CW, 437.150 USB
AO-Echo 18 Apr 15:56:56 16:00:53 21° 268° (W) 16:04:47 ?
JAS-1B 18 Apr 15:59:07 16:07:11 69° 72° (ENE) 16:13:55 435.800 - 435.900 CW/SSB
TMSAT-1 18 Apr 15:59:50 16:05:05 67° 258° (WSW) 16:10:23 436.925 FM
ISS 18 Apr 16:03:05 16:05:57 27° 138° (SE) 16:08:50 145.800 FM
Uosat F 18 Apr 16:12:47 16:17:46 67° 72° (ENE) 16:22:46 435.120 FM
RS-15 18 Apr 16:45:51 16:56:51 87° 237° (WSW) 17:08:06 29.354 - 29.394 USB, Beacon 29.352 USB
Gurwin Techsat 1B 18 Apr 16:53:02 16:56:30 18° 270° (W) 17:00:00 435.225 FM
AO-7 18 Apr 16:57:06 17:05:23 81° 252° (WSW) 17:13:44 29.400 - 29.500 MHz
OPAL 18 Apr 16:58:35 17:03:32 44° 293° (WNW) 17:08:28 ?
SO-50 18 Apr 17:26:16 17:30:34 44° 312° (NW) 17:34:55 436.795 FM
ISS 18 Apr 17:39:17 17:42:33 50° 335° (NNW) 17:45:51 145.800 FM
JAS-1B 18 Apr 17:51:48 17:58:07 25° 266° (W) 18:03:42 435.800 - 435.900 CW/SSB
Uosat F 18 Apr 17:54:03 17:57:02 16° 270° (W) 18:00:02 435.120 FM
Hamsat 18 Apr 18:06:55 18:10:45 36° 70° (ENE) 18:14:38 145.90 MHz
UOSAT-12 18 Apr 18:15:09 18:19:23 39° 117° (ESE) 18:23:43 437.025 FM, 437.400 FM
Saudisat 1A 18 Apr 18:31:26 18:32:55 11° 29° (NNE) 18:34:24 436.775 MHz
SO-67 18 Apr 18:41:36 18:43:27 14° 65° (ENE) 18:45:18 435.3500 MHz FM
JAS-2 18 Apr 18:50:50 18:56:11 40° 69° (ENE) 19:01:09 435.800 - 435.900 CW/SSB, 435.910 FM
AO-7 18 Apr 18:54:32 18:59:25 17° 272° (W) 19:04:20 29.400 - 29.500 MHz
RS-15 18 Apr 18:59:49 19:07:38 23° 259° (W) 19:15:38 29.354 - 29.394 USB, Beacon 29.352 USB
SO-50 18 Apr 19:11:12 19:12:19 11° 333° (NNW) 19:13:27 436.795 FM
ISS 18 Apr 19:17:03 19:19:50 23° 355° (N) 19:22:37 145.800 FM
STRAND 1 18 Apr 19:34:49 19:39:36 39° 98° (E) 19:44:21 ?
Hamsat 18 Apr 19:43:39 19:46:51 21° 267° (W) 19:50:06 145.90 MHz
UOSAT-12 18 Apr 19:55:33 19:59:38 31° 316° (NW) 20:03:47 437.025 FM, 437.400 FM
Saudisat 1A 18 Apr 20:09:15 20:13:35 50° 50° (NE) 20:17:51 436.775 MHz
SO-67 18 Apr 20:12:58 20:16:16 40° 262° (W) 20:19:36 435.3500 MHz FM
HO-68 18 Apr 20:35:23 20:41:54 40° 62° (ENE) 20:48:26 435.675 MHz FM
JAS-2 18 Apr 20:36:23 20:41:24 29° 264° (W) 20:46:05 435.800 - 435.900 CW/SSB, 435.910 FM
ISS 18 Apr 20:54:14 20:57:16 30° 15° (NNE) 21:00:18 145.800 FM
STRAND 1 18 Apr 21:14:21 21:18:38 28° 295° (WNW) 21:22:54 ?
Oscar 11 18 Apr 21:15:46 21:19:04 22° 65° (ENE) 21:22:22 145.825 FM, Beacon 2401.500 USB
MaSat-1 18 Apr 21:35:18 21:36:26 12° 110° (ESE) 21:37:32 437.345 MHz
Saudisat 1A 18 Apr 21:49:38 21:52:50 20° 248° (WSW) 21:56:00 436.775 MHz
HO-68 18 Apr 22:22:48 22:29:31 44° 261° (W) 22:36:19 435.675 MHz FM
ISS 18 Apr 22:30:53 22:34:14 68° 214° (SW) 22:37:34 145.800 FM
FUNcube-1 18 Apr 22:38:25 22:42:29 49° 72° (ENE) 22:46:31 145.950 - 145.970 MHz USB
Oscar 11 18 Apr 22:51:02 22:55:02 38° 262° (W) 22:59:05 145.825 FM, Beacon 2401.500 USB
MaSat-1 18 Apr 23:12:18 23:14:42 24° 302° (WNW) 23:16:54 437.345 MHz
Sapphire 19 Apr 00:14:25 00:17:31 16° 104° (ESE) 00:20:38 437.095 MHz 1200 baud AX-25 AFSK
SO-50 19 Apr 00:15:51 00:20:11 38° 47° (NE) 00:24:33 436.795 FM
FUNcube-1 19 Apr 00:16:45 00:19:12 15° 269° (W) 00:21:38 145.950 - 145.970 MHz USB
PCSat 19 Apr 00:57:05 01:02:03 39° 112° (ESE) 01:07:03 145.825 MHz
UOSAT-12 19 Apr 01:04:09 01:06:25 13° 30° (NNE) 01:08:42 437.025 FM, 437.400 FM
Sapphire 19 Apr 01:54:50 02:00:14 79° 302° (WNW) 02:05:42 437.095 MHz 1200 baud AX-25 AFSK
SO-50 19 Apr 01:56:35 02:00:40 31° 245° (WSW) 02:04:48 436.795 FM
AO-27 19 Apr 02:00:44 02:01:38 10° 87° (E) 02:02:33 436.795 MHz FM
ITAMSAT 1 19 Apr 02:10:15 02:12:42 13° 89° (E) 02:15:08 435.822 SSB
Oscar 19 19 Apr 02:15:08 02:19:37 29° 95° (E) 02:24:05 437.125 CW, 437.150 USB
Oscar 16 19 Apr 02:23:05 02:27:52 36° 97° (E) 02:32:38 437.025 USB, Beacon 2401.1428
AO-Echo 19 Apr 02:24:24 02:26:40 13° 89° (E) 02:28:55 ?
OPAL 19 Apr 02:36:29 02:41:22 54° 68° (ENE) 02:46:21 ?
PCSat 19 Apr 02:40:32 02:45:29 36° 311° (NW) 02:50:30 145.825 MHz
UOSAT-12 19 Apr 02:42:57 02:47:37 56° 51° (NE) 02:52:14 437.025 FM, 437.400 FM
Uribyol 2 19 Apr 02:57:03 03:01:52 38° 98° (E) 03:06:41 436.500 FM
KITSAT 1 19 Apr 03:10:08 03:17:45 47° 112° (ESE) 03:25:23 435.175 FM
Gurwin Techsat 1B 19 Apr 03:26:06 03:30:15 23° 93° (E) 03:34:22 435.225 FM
Oscar 10/S400 19 Apr 03:33:29 03:53:57 34° 134° (SE) 05:32:05 145.825 - 145.975 CW/USB, Beacon 145.810 USB
AO-27 19 Apr 03:36:43 03:41:56 84° 104° (ESE) 03:47:07 436.795 MHz FM
Sapphire 19 Apr 03:41:01 03:44:34 17° 323° (NW) 03:48:08 437.095 MHz 1200 baud AX-25 AFSK
JAS-1B 19 Apr 03:45:22 03:46:58 11° 87° (E) 03:48:34 435.800 - 435.900 CW/SSB
ITAMSAT 1 19 Apr 03:47:38 03:52:49 80° 286° (WNW) 03:57:59 435.822 SSB
Oscar 19 19 Apr 03:54:14 03:59:03 39° 292° (WNW) 04:03:50 437.125 CW, 437.150 USB
AO-Echo 19 Apr 04:01:13 04:06:01 70° 286° (WNW) 04:10:42 ?
Oscar 16 19 Apr 04:02:36 04:07:08 31° 294° (WNW) 04:11:40 437.025 USB, Beacon 2401.1428
TMSAT-1 19 Apr 04:14:06 04:19:10 43° 98° (E) 04:24:11 436.925 FM
OPAL 19 Apr 04:16:58 04:20:36 20° 266° (W) 04:24:18 ?
Uosat F 19 Apr 04:20:01 04:23:22 18° 91° (E) 04:26:42 435.120 FM
UOSAT-12 19 Apr 04:23:57 04:27:23 20° 249° (WSW) 04:30:48 437.025 FM, 437.400 FM
Uribyol 2 19 Apr 04:36:47 04:41:13 29° 295° (WNW) 04:45:39 436.500 FM
AO-7 19 Apr 04:57:17 05:04:29 32° 95° (E) 05:11:39 29.400 - 29.500 MHz
KITSAT 1 19 Apr 05:05:21 05:13:09 48° 313° (NW) 05:21:00 435.175 FM
Gurwin Techsat 1B 19 Apr 05:05:22 05:10:30 50° 290° (WNW) 05:15:35 435.225 FM
AO-27 19 Apr 05:17:57 05:20:46 15° 302° (WNW) 05:23:34 436.795 MHz FM
STRAND 1 19 Apr 05:18:31 05:19:07 10° 54° (NE) 05:19:44 ?
ITAMSAT 1 19 Apr 05:29:29 05:31:29 12° 304° (NW) 05:33:29 435.822 SSB
JAS-1B 19 Apr 05:32:51 05:38:35 90° 285° (WNW) 05:44:26 435.800 - 435.900 CW/SSB
